Location: ?????????
(54.7630°N, 39.4991°E)
Time: 14:21:46
(UTC+00:00)

Nadezhda 4 Rocket - Pass Details

Date: 14 April 2026
Orbit: 948 x 992 km, 82.9° (Epoch: 17 May)

Event Time Altitude Azimuth Distance (km) Brightness Sun altitude
Rises 22:08:41 0° 349° (N) 3,678 8.1 -24.8°
Reaches altitude 10° 22:11:14 10° 352° (N) 2,721 7.2 -24.7°
Maximum altitude 22:17:26 70° 76° (ENE) 1,020 4.1 -24.5°
Enters shadow 22:19:35 42° 146° (SSE) 1,336 4.4 -24.4°
